This demonstration page uses our WeatherBlox Daily Observations layout. Learn more.

Left ArrowRight Arrow

38.20091, -84.87328

Hourly Observations for August 28, 2021

Temp ( °F °C ) Dew Point ( °F °C ) Humidity (%) Winds ( mph kmh ) Pressure ( in mb ) Visibility ( mi km ) Precip ( " mm )
12:48 am 00:48 Mostly Clear with Mist and Fog 72 22 72 22 100 100 SE 5 7 30.13 1020 3 4 0.00 0.00
12:53 am 00:53 Clear with Mist and Fog 72 22.2 71 21.7 97 97 SE 5 7 30.12 1020 3 4 0.00 0.00
1:00 am 01:00 Clear 72 22.2 71 21.7 97 97 SE 5 7 30.12 1020 9 14 0.00 0.00
1:53 am 01:53 Clear 73 22.8 71 21.7 94 94 Calm 30.12 1020 7 11 0.00 0.00
2:53 am 02:53 Clear 72 22.2 70 21.1 94 94 Calm 30.11 1020 10 16 0.00 0.00
3:53 am 03:53 Clear 71 21.7 70 21.1 96 96 Calm 30.11 1020 10 16 0.00 0.00
4:53 am 04:53 Clear 70 21.1 69 20.6 97 97 Calm 30.12 1020 10 16 0.00 0.00
5:14 am 05:14 Clear with Mist and Fog 69 20.6 68 20 96 96 Calm 30.13 1020 2 3 0.00 0.00
5:22 am 05:22 Clear with Mist and Fog 70 21.1 69 20.6 97 97 Calm 30.13 1020 1 2 0.00 0.00
5:25 am 05:25 Clear with Mist and Fog 70 21.1 69 20.6 97 97 Calm 30.13 1020 2 3 0.00 0.00
5:32 am 05:32 Clear 70 21.1 68 20 93 93 Calm 30.13 1020 10 16 0.00 0.00
5:53 am 05:53 Clear 69 20.6 68 20 96 96 Calm 30.13 1020 10 16 0.00 0.00
6:53 am 06:53 Clear 69 20.6 68 20 96 96 Calm 30.15 1021 7 11 0.00 0.00
7:53 am 07:53 Sunny 71 21.7 69 20.6 94 94 Calm 30.18 1022 10 16 0.00 0.00
8:53 am 08:53 Partly Cloudy 75 23.9 71 21.7 88 88 SSE 3 6 30.19 1022 10 16 0.00 0.00
9:53 am 09:53 Sunny 81 27.2 73 22.8 77 77 VRB 3 6 30.19 1022 10 16 0.00 0.00
10:53 am 10:53 Sunny 84 28.9 74 23.3 72 72 SW 6 9 30.19 1022 10 16 0.00 0.00
11:53 am 11:53 Sunny 87 30.6 74 23.3 65 65 SW 7 11 30.19 1022 10 16 0.00 0.00
12:53 pm 12:53 Sunny 89 31.7 73 22.8 59 59 Calm 30.17 1022 10 16 0.00 0.00
1:53 pm 13:53 Partly Cloudy 91 32.8 72 22.2 54 54 VRB 6 9 30.16 1021 10 16 0.00 0.00
2:53 pm 14:53 Partly Cloudy 92 33.3 71 21.7 51 51 SW 7 11 30.14 1021 10 16 0.00 0.00
3:53 pm 15:53 Mostly Sunny 91 32.8 70 21.1 50 50 SSW 3 6 30.11 1020 10 16 0.00 0.00
4:53 pm 16:53 Mostly Cloudy 92 33.3 70 21.1 49 49 undefined N/A 30.11 1020 10 16 0.00 0.00
5:53 pm 17:53 Mostly Cloudy 92 33.3 71 21.7 51 51 S 5 7 30.10 1019 10 16 0.00 0.00
6:53 pm 18:53 Sunny 90 32.2 70 21.1 52 52 SSW 5 7 30.11 1020 10 16 0.00 0.00
7:53 pm 19:53 Sunny 87 30.6 74 23.3 65 65 Calm 30.10 1019 10 16 0.00 0.00
8:53 pm 20:53 Clear 81 27.2 74 23.3 79 79 SW 7 11 30.12 1020 10 16 0.00 0.00
9:53 pm 21:53 Clear 81 27.2 72 22.2 74 74 Calm 30.12 1020 10 16 0.00 0.00
10:53 pm 22:53 Clear 78 25.6 72 22.2 82 82 Calm 30.13 1020 10 16 0.00 0.00
11:53 pm 23:53 Clear 77 25 72 22.2 85 85 SE 3 6 30.14 1021 10 16 0.00 0.00

Powered by AerisWeather